Location: Diguira
(13.1838°N, 4.9109°W)
Time: 15:32:20
(UTC+00:00)

H-2A R/B - Pass Details

Date: 18 September 2020
Orbit: 734 x 836 km, 98.2° (Epoch: 19 October)

Event Time Altitude Azimuth Distance (km) Brightness Sun altitude
Exits shadow 20:49:27 15° 235° (SW) 1,928 4.4 -37.4°
Maximum altitude 20:51:13 17° 261° (W) 1,778 4.4 -37.8°
Drops below altitude 10° 20:54:25 10° 302° (WNW) 2,239 5.0 -38.5°
Sets 20:57:27 0° 322° (NW) 3,172 5.8 -39.3°
